Location: Lichtensteig
(47.3376°N, 9.0841°E)
Time: 03:39:39
(UTC+00:00)

Cosmos 1066 Rocket - Pass Details

Date: 03 March 2021
Orbit: 799 x 894 km, 81.2° (Epoch: 16 April)

Event Time Altitude Azimuth Distance (km) Brightness Sun altitude
Rises 19:35:32 0° 347° (NNW) 3,439 7.8 -24.8°
Reaches altitude 10° 19:37:56 10° 346° (NNW) 2,512 7.0 -25.2°
Maximum altitude 19:43:39 77° 261° (W) 902 4.3 -26.1°
Enters shadow 19:45:46 41° 184° (S) 1,255 4.9 -26.5°
